Weather History for Olympia, WA

Change the Weather History Date:

Tuesday, November 22, 2011

  Actual Average Record
Temperature  
Mean Temperature 49 °F 42 °F  
Max Temperature 54 °F 48 °F 63 °F (1957)
Min Temperature 44 °F 35 °F 2 °F (1985)
Degree Days  
Heating Degree Days 16 23  
Month to date heating degree days 536 457  
Since 1 July heating degree days 1304 1251  
Cooling Degree Days 0 0  
Month to date cooling degree days 0 0  
Year to date cooling degree days 59 106  
Moisture  
Dew Point 46 °F    
Average Humidity 93    
Maximum Humidity 100    
Minimum Humidity 86    
Precipitation  
Precipitation 0.90 in 0.30 in 2.87 in (1959)
Month to date precipitation 4.43 6.23  
Year to date precipitation 41.65 40.14  
Sea Level Pressure  
Sea Level Pressure 29.52 in    
Wind  
Wind Speed 12 mph (SSW)    
Max Wind Speed 26 mph    
Max Gust Speed 36 mph    
Visibility 5 miles    
Events Rain    
T = Trace of Precipitation, MM = Missing Value Source: NWS Daily Summary

Daily Weather History Graph

Daily Weather History Graph

Search for Another Location

Airport:

Trip Planner

Search our weather history database for the weather conditions in past years. The results will help you decide how hot, cold, wet, or windy it might be!

Date:

Astronomy

Nov. 22, 2011 Rise Set
Actual Time 7:24 AM PST 4:30 PM PST
Civil Twilight 6:50 AM PST 5:04 PM PST
Nautical Twilight 6:13 AM PST 5:41 PM PST
Astronomical Twilight 5:37 AM PST 6:17 PM PST
Moon 4:14 AM PST (11/22) 2:39 PM PST (11/22)
Length of Visible Light 10h 13m
Length of Day
9h 05m
Waning Crescent, 9% of the Moon is Illuminated
Nov 22
Waning Crescent
Nov 24
New
Dec 2
First Quarter
Dec 10
Full
Dec 17
Last Quarter

Hourly Weather History & Observations

Time (PST) Temp. Windchill Dew Point Humidity Pressure Visibility Wind Dir Wind Speed Gust Speed Precip Events Conditions
12:54 AM 48.9 °F - 45.0 °F 86% 29.50 in 10.0 mi South 23.0 mph 32.2 mph 0.02 in Rain Light Rain
1:54 AM 48.9 °F - 45.0 °F 86% 29.48 in 8.0 mi South 26.5 mph 36.8 mph 0.07 in Rain Light Rain
2:54 AM 48.9 °F - 46.0 °F 90% 29.46 in 8.0 mi South 21.9 mph 34.5 mph 0.08 in Rain Light Rain
3:54 AM 48.9 °F - 46.0 °F 90% 29.44 in 5.0 mi South 23.0 mph 40.3 mph 0.15 in Rain Rain
4:54 AM 50.0 °F - 46.9 °F 89% 29.42 in 5.0 mi South 28.8 mph 39.1 mph 0.17 in Rain Light Rain
5:51 AM 48.2 °F - 46.4 °F 93% 29.49 in 3.0 mi WNW 20.7 mph 29.9 mph 0.13 in Rain Heavy Rain
5:54 AM 46.9 °F - 45.0 °F 93% 29.49 in 1.8 mi WNW 12.7 mph 29.9 mph 0.18 in Rain Heavy Rain
6:01 AM 46.4 °F 41.9 °F 42.8 °F 87% 29.49 in 1.5 mi SSW 9.2 mph - 0.20 in Rain Heavy Rain
6:05 AM 44.6 °F 40.7 °F 42.8 °F 93% 29.49 in 3.0 mi WSW 6.9 mph 17.3 mph 0.22 in Rain Rain
6:54 AM 46.0 °F 43.9 °F 43.0 °F 89% 29.55 in 6.0 mi SSW 4.6 mph - 0.35 in Rain Light Rain
7:54 AM 45.0 °F 41.8 °F 43.0 °F 93% 29.59 in 7.0 mi South 5.8 mph - 0.06 in Rain Light Rain
8:54 AM 46.4 °F 41.9 °F 42.8 °F 87% 29.62 in 10.0 mi South 9.2 mph - N/A Rain Light Rain
9:54 AM 46.0 °F 41.0 °F 43.0 °F 89% 29.65 in 10.0 mi South 10.4 mph - 0.03 in Rain Light Rain
10:54 AM 46.0 °F 44.8 °F 44.1 °F 93% 29.68 in 5.0 mi South 3.5 mph - 0.05 in Rain Light Rain
11:54 AM 46.0 °F 43.1 °F 44.1 °F 93% 29.68 in 4.0 mi South 5.8 mph - 0.11 in Rain Light Rain
12:54 PM 46.0 °F 43.9 °F 44.1 °F 93% 29.67 in 5.0 mi South 4.6 mph - 0.11 in Rain Light Rain
1:11 PM 46.4 °F - 44.6 °F 93% 29.66 in 4.0 mi Calm Calm - N/A Rain Rain
1:34 PM 46.4 °F 44.3 °F 44.6 °F 93% 29.64 in 3.0 mi SE 4.6 mph - 0.11 in Rain Rain
1:54 PM 46.0 °F 43.9 °F 44.1 °F 93% 29.64 in 5.0 mi East 4.6 mph - 0.16 in Rain Rain
2:54 PM 45.0 °F - 44.1 °F 97% 29.62 in 3.0 mi Calm Calm - 0.20 in Rain Rain
4:23 PM 44.6 °F 41.4 °F 42.8 °F 93% 29.55 in 2.0 mi NNE 5.8 mph - 0.21 in Rain Rain
4:54 PM 44.1 °F 41.5 °F 43.0 °F 96% 29.54 in 2.0 mi NNE 4.6 mph - 0.36 in Rain Heavy Rain
5:54 PM 44.1 °F 41.5 °F 43.0 °F 96% 29.51 in 3.0 mi NNW 4.6 mph - 0.11 in Rain Light Rain
6:54 PM 45.0 °F - 43.0 °F 93% 29.50 in 6.0 mi Calm Calm - 0.04 in Rain Light Rain
7:54 PM 44.1 °F 41.5 °F 43.0 °F 96% 29.47 in 4.0 mi WNW 4.6 mph - 0.03 in Rain Light Rain
8:11 PM 44.6 °F - 44.6 °F 100% 29.47 in 2.5 mi Calm Calm - 0.05 in Rain Rain
8:31 PM 44.6 °F 43.1 °F 42.8 °F 93% 29.46 in 2.5 mi WNW 3.5 mph - 0.12 in Rain Rain
8:41 PM 46.4 °F 45.2 °F 44.6 °F 93% 29.45 in 3.0 mi WNW 3.5 mph - 0.15 in Rain Rain
8:54 PM 53.1 °F - 51.1 °F 93% 29.46 in 4.0 mi South 13.8 mph 21.9 mph 0.18 in Rain Light Rain
8:56 PM 53.6 °F - 51.8 °F 94% 29.45 in 4.0 mi SSW 12.7 mph 21.9 mph 0.01 in Rain Rain
9:01 PM 53.6 °F - 51.8 °F 94% 29.45 in 5.0 mi South 15.0 mph 24.2 mph 0.03 in Rain Rain
9:04 PM 53.6 °F - 51.8 °F 94% 29.45 in 6.0 mi South 12.7 mph 24.2 mph 0.03 in Rain Light Rain
9:19 PM 53.6 °F - 51.8 °F 94% 29.45 in 10.0 mi South 21.9 mph 29.9 mph 0.03 in Rain Light Rain
9:54 PM 54.0 °F - 51.1 °F 90% 29.44 in 10.0 mi South 19.6 mph 35.7 mph 0.04 in   Overcast
10:54 PM 54.0 °F - 51.1 °F 90% 29.41 in 5.0 mi South 24.2 mph 31.1 mph 0.07 in Rain Rain
11:54 PM 54.0 °F - 52.0 °F 93% 29.41 in 10.0 mi South 21.9 mph 28.8 mph 0.12 in Rain Light Rain